RH
65 65 63 61 59 57 56 55 54 54 53 51 49 46 42 39 37 35 34 34 34 34 34 33 33 32 31 31 30 30 30 30 29 29 29 29 28 27 26 25 23 22
55 56 57 57 56 54 52 51 50 49 49 48 48 48 46 44 42 39 37 35 33 32 32 32 32 31 31 30 30 29 28 28 28 28 28 28 28 29 28 27 26 25
45 45 46 46 47 47 46 46 45 44 43 42 42 41 41 40 40 39 38 37 35 33 32 30 30 29 29 29 28 28 27 27 27 27 27 27 27 27 27 27 27 26
40 40 40 40 40 40 40 40 40 39 39 39 38 37 36 35 35 34 34 34 33 33 32 31 30 29 28 27 26 26 26 25 25 25 26 26 26 26 27 27 27 26
36 37 37 37 37 36 36 35 35 35 34 34 34 33 33 32 31 31 30 30 30 29 29 29 29 28 28 27 26 26 25 24 24 24 24 24 24 25 25 26 26 26
31 32 32 32 32 32 32 32 31 31 30 30 30 29 29 28 28 28 27 27 27 26 26 26 26 26 26 26 26 25 25 25 24 24 24 24 23 23 24 24 25 25
28 28 28 28 28 28 28 28 27 27 27 27 27 26 26 25 25 25 24 24 24 24 24 24 24 24 24 24 24 24 24 24 24 24 24 24 24 24 24 23 24 24
27 27 26 26 26 26 25 25 25 24 24 24 24 24 24 23 23 23 23 22 22 22 22 22 22 22 22 22 22 23 23 23 23 24 24 24 24 25 25 25 25 25
25 25 25 25 25 24 24 24 23 23 23 23 23 22 22 22 22 22 22 22 22 22 21 22 21 22 22 22 22 22 23 23 23 24 24 25 25 25 26 26 26 26
24 23 23 22 22 22 22 22 22 22 22 22 22 22 22 21 21 21 21 21 21 21 21 21 21 21 21 21 22 22 22 23 23 23 24 24 25 26 27 28 28 28
21 21 20 20 19 19 18 18 18 18 18 18 19 19 19 19 19 19 19 19 19 19 19 19 19 19 20 20 20 20 21 21 21 22 22 22 23 24 24 25 26 27
20 19 19 18 18 17 17 16 16 16 16 15 16 16 16 16 16 16 16 17 17 17 17 18 18 18 18 18 19 19 19 19 20 20 20 20 20 21 21 22 23 23
16 15 15 14 14 14 13 13 13 13 13 13 13 13 13 13 13 13 14 14 14 14 15 15 16 16 17 17 17 17 18 18 18 18 18 18 18 19 19 20 20 20
11 11 11 11 10 10 10 10 10 9 9 9 9 9 9 9 9 9 9 10 10 10 10 11 12 12 12 13 13 14 15 15 15 16 16 16 16 16 17 18 18 19
9 9 9 9 9 9 8 8 8 8 8 8 8 8 8 7 7 7 7 7 7 7 7 8 8 8 8 8 9 9 10 10 10 11 11 11 12 12 12 13 14 14
6 6 6 6 6 6 6 6 7 7 7 7 7 7 7 7 7 7 7 7 7 7 7 7 7 7 7 7 7 8 8 8 8 8 8 9 9 9 9 9 9 10
4 4 4 4 4 4 4 4 4 4 4 5 5 5 5 5 5 5 5 5 5 5 5 6 6 6 6 6 7 7 7 7 8 8 8 8 8 8 8 9 9 9
4 4 4 4 4 4 4 4 4 4 4 4 4 4 4 4 4 4 4 4 4 4 4 4 4 4 4 5 5 5 5 5 6 6 6 6 6 7 7 8 8 8
4 4 4 4 4 4 4 4 4 4 4 4 4 4 4 4 4 4 4 4 4 4 4 4 4 4 4 4 4 4 4 4 5 4 4 4 4 5 5 5 6 6
4 5 4 4 4 4 4 4 4 4 4 4 4 4 4 4 4 4 4 4 4 4 4 4 4 4 4 4 4 4 4 4 5 5 4 4 4 4 4 4 4 5
4 4 4 4 4 4 4 4 4 4 4 4 4 4 4 4 4 4 4 4 4 4 4 4 4 4 4 4 4 4 4 4 5 5 4 4 4 4 4 4 4 4
4 4 4 4 4 4 4 4 4 4 4 4 4 4 4 4 4 4 4 4 4 4 4 4 4 4 4 4 4 4 4 4 5 5 5 4 4 4 4 4 4 4
4 4 4 4 4 4 4 4 4 4 4 4 4 4 4 4 4 4 4 4 4 4 4 4 4 4 4 4 4 4 4 4 5 5 5 5 4 4 4 4 4 4
4 4 4 4 4 4 4 4 4 4 4 4 4 4 4 4 4 4 4 4 5 4 4 4 4 4 4 4 4 4 4 5 5 5 6 5 4 4 4 4 4 4
4 4 4 4 4 4 4 4 4 4 4 4 4 4 4 4 4 4 4 4 5 4 4 5 5 4 4 4 5 5 5 5 5 6 6 6 5 5 4 4 4 4
4 4 4 4 4 4 4 4 4 4 4 4 4 4 4 4 4 4 4 4 4 4 4 4 4 4 4 4 4 5 5 5 5 6 6 6 6 6 5 5 5 4
Wind_Speed
127 129 130 131 132 133 134 135 136 137 138 138 139 140 140 141 141 142 142 142 143 143 144 144 144 144 144 145 145 145 145 145 144 144 143 143 143 142 142 142 141 141
128 130 131 133 134 135 137 137 138 139 140 141 141 142 143 143 143 144 144 145 145 145 145 146 146 146 146 146 147 147 147 147 147 146 146 146 146 145 145 145 144 144
131 132 134 135 136 137 139 140 140 141 142 143 144 144 145 145 146 146 146 147 147 147 147 147 148 148 148 148 148 148 148 148 148 148 148 148 148 148 148 147 147 147
134 136 137 138 139 140 141 142 143 144 144 145 146 146 147 147 147 148 148 148 149 149 149 149 149 149 149 149 149 149 149 149 149 149 149 149 149 149 149 149 149 149
138 139 140 141 143 144 145 146 146 147 147 148 148 149 149 149 150 150 150 150 150 150 150 150 150 150 150 150 150 150 150 150 149 149 149 149 149 149 149 149 150 150
141 142 143 144 145 147 148 148 149 150 150 151 151 152 152 152 152 152 152 152 152 152 151 151 151 151 151 151 151 151 151 150 150 149 149 149 149 149 149 149 149 149
143 144 145 147 148 149 149 150 151 152 152 153 153 154 154 154 154 154 154 154 154 154 153 153 153 152 152 152 152 152 152 151 151 151 150 150 150 150 150 149 149 149
144 145 147 148 149 150 151 151 152 153 153 154 154 155 155 155 155 155 155 155 155 155 155 154 154 154 154 153 153 153 153 153 152 152 152 152 152 152 152 151 151 151
144 145 147 148 149 150 151 151 152 153 153 154 154 155 155 155 156 156 156 155 155 155 155 155 154 154 154 154 154 153 153 153 153 153 152 152 152 153 153 153 153 153
144 145 146 147 148 149 150 150 151 152 153 153 154 154 155 155 155 155 155 155 155 154 154 154 154 154 153 153 153 153 153 153 152 152 152 152 151 151 152 152 153 153
142 143 143 144 145 146 146 147 148 148 149 150 150 151 152 152 152 153 153 153 153 153 153 153 152 152 152 152 152 151 151 151 151 151 151 150 150 150 149 150 150 151
138 139 140 140 141 141 142 142 142 143 143 144 144 145 145 146 146 147 147 147 147 148 148 148 148 149 149 149 149 149 149 149 149 149 148 148 148 147 147 147 147 147
134 135 135 136 137 137 138 138 138 138 138 139 139 140 140 140 140 141 141 141 141 141 142 142 143 143 143 144 144 144 145 145 145 145 145 145 145 145 144 144 144 145
127 128 129 130 131 132 132 133 133 133 133 133 134 134 134 134 135 135 136 136 136 136 136 137 137 138 139 139 140 140 141 142 143 143 143 143 143 143 143 143 143 143
119 120 121 122 123 124 125 126 126 127 127 127 127 127 128 128 128 128 129 129 129 129 130 130 131 131 132 133 134 134 136 137 138 139 139 140 140 140 140 141 141 141
112 113 114 114 115 116 117 118 118 119 120 120 120 121 121 121 121 122 122 122 122 122 122 123 123 124 124 125 126 126 128 130 131 132 133 133 134 135 135 135 135 136
107 107 108 108 109 109 110 111 112 112 113 113 114 114 115 115 115 116 116 116 117 117 117 117 117 117 118 119 119 120 121 123 124 125 126 126 127 128 128 129 129 130
104 104 104 105 105 105 106 106 107 107 107 108 108 108 109 109 110 110 111 111 111 112 112 112 112 112 113 113 114 114 115 116 119 120 120 120 121 121 122 122 123 124
103 103 103 102 102 102 103 103 103 103 103 103 104 104 104 105 105 106 106 107 107 107 107 107 107 107 108 108 109 109 109 110 113 116 116 115 115 116 116 117 118 119
101 101 101 101 101 100 100 100 100 100 100 100 100 101 101 101 102 102 103 103 103 104 104 104 104 104 104 104 104 105 104 104 108 112 112 111 110 111 111 112 112 113
98 98 98 98 98 98 97 97 98 98 98 97 97 98 98 98 98 99 99 100 100 100 101 101 101 101 101 101 101 101 101 100 103 107 108 107 107 107 107 107 107 108
95 95 95 95 94 94 94 94 94 94 94 94 94 95 95 95 95 95 96 97 97 97 98 98 98 98 98 98 98 98 98 98 100 104 105 105 106 106 104 104 104 104
92 91 91 91 91 91 90 90 90 91 91 91 91 91 91 92 92 92 93 94 94 94 94 95 95 95 95 95 96 95 95 95 97 100 103 104 104 104 103 102 102 102
89 89 88 88 88 88 87 87 87 87 87 87 87 88 88 89 89 89 90 91 92 92 92 92 93 93 92 92 93 93 93 93 94 97 99 101 102 103 102 101 101 100
88 87 87 86 86 86 85 85 85 85 85 85 85 85 85 86 86 86 87 88 89 89 89 90 90 90 90 89 90 90 90 90 91 93 96 98 99 101 101 100 99 98
87 86 86 85 84 84 84 83 83 83 83 83 83 83 83 84 84 84 85 85 86 86 87 87 87 88 87 87 86 87 87 87 88 90 92 94 95 98 99 98 97 96
Wind_Direction
267 267 266 266 266 266 265 265 265 265 265 265 265 264 264 264 264 263 263 263 263 263 263 263 264 264 264 264 264 264 264 265 265 265 265 265 266 266 266 267 267 267
265 265 265 265 265 265 265 265 265 264 264 264 264 264 264 264 264 264 264 264 263 263 263 263 263 263 263 263 263 264 264 264 264 264 265 265 265 265 265 266 266 266
264 264 264 264 265 265 265 265 264 264 264 264 264 264 264 264 264 264 264 264 264 264 264 264 264 264 264 264 264 264 264 264 264 264 264 264 264 265 265 265 265 265
265 265 265 264 264 264 264 264 264 264 264 264 264 264 264 264 264 264 264 264 264 264 265 265 265 265 265 265 265 265 265 264 264 264 264 264 264 264 264 265 265 265
265 265 265 265 265 265 265 265 265 265 265 265 265 265 265 265 265 265 265 265 265 265 265 265 265 265 266 266 266 266 266 266 266 266 265 265 265 265 265 265 265 265
266 265 265 265 265 265 265 265 265 265 265 265 265 265 266 266 266 266 266 266 266 266 266 266 266 266 266 266 266 267 267 267 267 267 267 267 267 267 266 266 266 266
267 266 266 266 266 266 266 266 266 266 266 266 267 267 267 267 267 267 267 267 267 267 267 267 267 267 267 267 267 267 267 267 267 267 267 268 268 268 268 267 267 267
267 267 267 267 267 267 267 267 267 267 267 267 267 268 268 268 268 268 268 268 268 268 268 268 268 268 268 268 268 268 268 268 268 268 268 268 268 268 268 268 268 268
269 268 268 268 268 268 268 268 268 268 268 268 268 268 268 269 269 269 269 269 269 269 269 269 268 268 268 268 268 268 268 268 268 268 267 267 267 267 268 268 268 268
270 270 270 269 269 269 269 269 269 269 269 269 269 269 269 269 269 269 269 269 269 269 269 269 269 269 269 269 268 268 268 268 268 267 267 267 267 266 266 267 267 267
272 272 271 271 271 270 270 270 270 269 269 269 269 269 269 269 269 269 269 269 269 269 269 269 269 269 269 269 269 269 269 268 268 268 268 267 267 267 266 266 266 266
273 273 273 273 272 272 272 271 271 271 270 270 270 269 269 269 269 269 269 269 269 269 268 269 269 269 269 269 269 269 268 268 268 268 268 268 267 267 267 267 266 266
274 274 273 273 273 273 272 272 272 271 271 271 270 270 270 270 269 269 269 269 269 268 268 268 268 268 268 268 268 268 268 268 268 267 267 267 267 267 267 267 266 266
274 274 273 273 273 273 272 272 272 272 271 271 271 270 270 270 270 269 269 269 269 268 268 268 267 267 267 267 267 267 267 267 267 267 267 266 266 266 266 266 266 266
274 273 273 273 272 272 272 272 272 272 271 271 271 271 271 270 270 270 269 269 269 268 268 268 267 267 267 267 266 266 266 266 266 266 266 266 266 266 265 265 265 265
275 274 274 273 273 272 272 272 272 271 271 271 271 271 270 270 270 270 269 269 269 268 268 268 267 267 267 266 266 266 266 265 265 265 265 265 265 265 265 265 265 264
277 277 276 275 274 274 273 273 272 272 272 271 271 271 271 270 270 270 270 269 269 269 268 268 267 267 267 266 266 266 265 265 265 265 265 265 264 264 264 264 264 264
279 278 278 277 276 275 275 274 274 273 273 272 272 271 271 271 271 270 270 270 269 269 268 268 267 267 267 266 266 265 265 266 266 265 265 264 264 264 264 264 264 264
280 279 279 278 277 276 276 275 275 274 274 273 273 272 272 271 271 271 270 270 270 269 269 268 268 267 267 266 266 266 265 265 266 265 265 264 264 264 264 264 264 263
281 280 279 279 278 277 277 276 276 275 274 274 273 273 272 271 271 271 270 270 270 269 269 269 268 268 267 267 266 266 266 265 266 266 265 265 264 264 263 263 263 263
280 280 279 279 278 278 277 277 276 276 275 275 274 273 273 272 271 271 270 270 270 269 269 269 268 268 267 267 266 266 266 266 266 266 266 265 265 264 263 263 263 263
281 280 280 279 278 278 277 277 276 276 275 275 275 274 273 273 272 272 271 270 270 269 269 268 268 268 267 267 266 266 266 265 265 266 266 266 265 265 264 263 263 263
282 281 281 280 279 279 278 277 277 276 276 275 275 274 274 273 273 272 272 271 270 270 269 269 268 268 267 267 267 266 266 265 265 265 266 266 266 265 265 264 263 263
283 282 282 281 280 280 279 278 277 277 276 276 275 275 274 274 273 272 272 271 271 270 270 269 269 268 268 267 267 266 266 265 265 265 265 265 266 265 265 265 264 263
284 283 282 281 281 280 280 279 279 278 277 277 276 275 274 274 273 273 272 272 271 271 270 270 269 269 268 267 267 267 266 266 265 264 264 265 265 265 265 265 264 264
285 284 284 283 282 282 281 280 279 279 278 278 277 276 275 274 274 273 272 272 272 271 271 270 270 269 269 268 267 267 266 266 265 265 264 264 265 265 265 265 265 264